Location: Corte Bragagnani
(45.3000°N, 11.1000°E)
Time: 09:16:36
(UTC+00:00)

CZ-2C R/B - Pass Details

Date: 09 April 2020
Orbit: 639 x 705 km, 98.4° (Epoch: 24 May)

Event Time Altitude Azimuth Distance (km) Brightness Sun altitude
Rises 18:48:35 0° 19° (NNE) 3,078 7.2 -9.9°
Reaches altitude 10° 18:50:57 10° 26° (NNE) 2,148 6.3 -10.3°
Maximum altitude 18:55:27 45° 99° (E) 923 4.0 -11.0°
Drops below altitude 10° 18:59:51 10° 172° (S) 2,092 6.0 -11.8°
Sets 19:02:07 0° 179° (S) 2,989 6.8 -12.1°
